"Pseudo-MPEC" for P10IoDr

Created 2018 Jul 19 19:18:03 UT using Find_Orb

Click here for an explanation of pseudo-MPECs

 
 Astrometry: 
     P10IoDr  C2018 07 11NvAstrometry3g`sXON=EXHy\1XZwwlbuUcbQwXLRE98qhF4g%6fF51
     P10IoDr  C2018 07 11;!DB[usM]I\14xgl$?8=20hTWA6m-QH+M*G1=Jn=[(o#Nsvfj.QXF51
     P10IoDr  C2018 07 11b.5)x\j)*uW4!Xr(nredacted;j=P_t$3qEWYv6B^%%\aJeEEvZ!F51
     P10IoDr KC2018 07 12T4s6(c.X#(\jy'GYW]U;4QW^q#^m7_K2seelSveS)!C\)jo:(JVDH21
     P10IoDr KC2018 07 129-Vw$Y5Lpt(A-tN]u9jX:3:wW08_4H^MUn%4M::wiBPpFgk_WISjH21
     P10IoDr KC2018 07 12+!(C;kSDGIht=\q`$i6u5#@N4D[XfZDcu`.N*/u-QI%4telNEOCPH21

Station data:
(F51) Pan-STARRS 1, Haleakala  (N20.707235 W156.255910)  US/Hawaii.
   Observers N. Primak, A. Schultz, S. Watters, J. Thiel, T. Goggia. Measurer
   PS1 Science Consortium. 1.8-m Ritchey-Chrétien + CCD.
(H21) Astronomical Research Observatory, Westfield  (N39.483057 W87.968270)
   US/Illinois. 0.76-m f/3.0 astrograph + CCD.

Orbital elements:  P10IoDr
   Perihelion 2017 Jul 4.664671 +/- 747 TT = 15:57:07 (JD 2457939.164671)
Epoch 2018 Jul 12.0 TT = JDT 2458311.5   Earth MOID: 0.2665   Ju: 0.5628
M  74.21141 +/- 60                  (J2000 ecliptic)          AutoNEOCP
n   0.19931339 +/- 0.255            Peri.   22.15589 +/- 27
a   2.90254116 +/- 2.48             Node   176.86858 +/- 9
e   0.5719106 +/- 0.154             Incl.   23.69951 +/- 21
P   4.95                   H 16.5   G  0.15   U 11.9  SR
q 1.24254692 +/- 1.96    Q 4.56253540 +/- 3
From 6 observations 2018 July 11-12 (19.1 hr); mean residual 0".33
Residuals in arcseconds: 
180711 F51  .38+  .34-    180711 F51  .14-  .78+    180712 H21  .03+  .02+    
180711 F51  .26-  .43-    180712 H21  .28+  .02+    180712 H21  .30-  .06-    

Ephemerides (geocentric):
Date (UTC) HH   RA              Dec         delta   r     elong  mag " sig PA
---- -- -- --  -------------   -----------  ------ ------ -----  --- ---- ---
2018 07 19 19  23 18 37.424   +06 16 01.38  2.7247 3.3902 123.3 22.2  486 152
2018 07 19 20  23 18 36.627   +06 15 53.77  2.7244 3.3904 123.3 22.2  492 152
2018 07 19 21  23 18 35.828   +06 15 46.15  2.7240 3.3906 123.3 22.2  497 152
2018 07 19 22  23 18 35.028   +06 15 38.50  2.7237 3.3908 123.4 22.2  503 152
2018 07 19 23  23 18 34.225   +06 15 30.84  2.7234 3.3910 123.4 22.2  509 152
2018 07 20 00  23 18 33.421   +06 15 23.17  2.7231 3.3912 123.5 22.2  514 152
2018 07 20 01  23 18 32.614   +06 15 15.47  2.7227 3.3914 123.5 22.2  520 152
2018 07 20 02  23 18 31.806   +06 15 07.76  2.7224 3.3916 123.6 22.2  526 152
2018 07 20 03  23 18 30.996   +06 15 00.03  2.7221 3.3918 123.6 22.2  532 152
2018 07 20 04  23 18 30.183   +06 14 52.29  2.7218 3.3920 123.6 22.2  537 152
2018 07 20 05  23 18 29.369   +06 14 44.52  2.7215 3.3922 123.7 22.2  543 152
2018 07 20 06  23 18 28.553   +06 14 36.74  2.7211 3.3924 123.7 22.2  549 152
2018 07 20 07  23 18 27.735   +06 14 28.95  2.7208 3.3926 123.8 22.2  555 152
2018 07 20 08  23 18 26.915   +06 14 21.13  2.7205 3.3928 123.8 22.2  561 152
2018 07 20 09  23 18 26.093   +06 14 13.30  2.7202 3.3929 123.9 22.2  567 152
2018 07 20 10  23 18 25.269   +06 14 05.45  2.7199 3.3931 123.9 22.2  573 152
2018 07 20 11  23 18 24.443   +06 13 57.59  2.7196 3.3933 123.9 22.2  579 152
2018 07 20 12  23 18 23.615   +06 13 49.70  2.7192 3.3935 124.0 22.2  585 152
2018 07 20 13  23 18 22.785   +06 13 41.80  2.7189 3.3937 124.0 22.2  591 152
2018 07 20 14  23 18 21.954   +06 13 33.88  2.7186 3.3939 124.1 22.2  598 152
2018 07 20 15  23 18 21.120   +06 13 25.95  2.7183 3.3941 124.1 22.2  604 152
2018 07 20 16  23 18 20.284   +06 13 18.00  2.7180 3.3943 124.2 22.2  610 152
2018 07 20 17  23 18 19.447   +06 13 10.03  2.7177 3.3945 124.2 22.2  616 152
2018 07 20 18  23 18 18.607   +06 13 02.04  2.7173 3.3947 124.2 22.2  623 152
2018 07 20 19  23 18 17.766   +06 12 54.04  2.7170 3.3949 124.3 22.2  629 152
2018 07 20 20  23 18 16.922   +06 12 46.02  2.7167 3.3951 124.3 22.2  636 152
2018 07 20 21  23 18 16.077   +06 12 37.98  2.7164 3.3953 124.4 22.2  642 152
2018 07 20 22  23 18 15.230   +06 12 29.92  2.7161 3.3955 124.4 22.2  648 152
2018 07 20 23  23 18 14.381   +06 12 21.85  2.7158 3.3957 124.5 22.2  655 152
2018 07 21 00  23 18 13.530   +06 12 13.76  2.7155 3.3959 124.5 22.2  662 152
2018 07 21 01  23 18 12.676   +06 12 05.66  2.7151 3.3961 124.5 22.2  668 152
2018 07 21 02  23 18 11.821   +06 11 57.53  2.7148 3.3963 124.6 22.2  675 152
2018 07 21 03  23 18 10.965   +06 11 49.39  2.7145 3.3965 124.6 22.2  681 152
2018 07 21 04  23 18 10.106   +06 11 41.23  2.7142 3.3967 124.7 22.2  688 152
2018 07 21 05  23 18 09.245   +06 11 33.06  2.7139 3.3969 124.7 22.2  695 152
2018 07 21 06  23 18 08.382   +06 11 24.86  2.7136 3.3971 124.8 22.2  702 152
2018 07 21 07  23 18 07.518   +06 11 16.65  2.7133 3.3973 124.8 22.2  708 151
2018 07 21 08  23 18 06.651   +06 11 08.43  2.7129 3.3975 124.8 22.2  715 151
2018 07 21 09  23 18 05.782   +06 11 00.18  2.7126 3.3977 124.9 22.2  722 151
2018 07 21 10  23 18 04.912   +06 10 51.92  2.7123 3.3979 124.9 22.2  729 151
2018 07 21 11  23 18 04.040   +06 10 43.64  2.7120 3.3981 125.0 22.2  736 151
2018 07 21 12  23 18 03.165   +06 10 35.35  2.7117 3.3983 125.0 22.2  743 151
2018 07 21 13  23 18 02.289   +06 10 27.03  2.7114 3.3984 125.1 22.2  750 151
2018 07 21 14  23 18 01.411   +06 10 18.70  2.7111 3.3986 125.1 22.2  757 151
2018 07 21 15  23 18 00.531   +06 10 10.35  2.7108 3.3988 125.2 22.2  764 151
2018 07 21 16  23 17 59.649   +06 10 01.99  2.7105 3.3990 125.2 22.2  772 151
2018 07 21 17  23 17 58.765   +06 09 53.61  2.7101 3.3992 125.2 22.2  779 151
2018 07 21 18  23 17 57.879   +06 09 45.21  2.7098 3.3994 125.3 22.2  786 151